[[{"header":{"parameterUnit":"m.s-1","parameterCategory":1,"la1":30.2991,"la2":30.254,"lo1":-89.0895,"lo2":-89.0444,"dy":0.0017,"dx":0.0017,"nx":28,"ny":28,"refTime":"2025-08-12T21:00:00:Z","depth":0,"parameterNumber":2,"parameterNumberName":"U-component_of_WINDS"},"data":[0,0,0,0,0,0,0,0,0,0,0,0,0,0,0,0,0,0,0,0,0,0,0,0,0,0,0,0,0,0,0,0,0,0,0,0,0,0,0,0,0,0,0,0,0,0,0,0,0,0,0,0,0,0,0,0,0,0,1.0916,1.0917,0,1.1036,1.1037,1.1039,1.1077,1.1077,1.1076,1.1076,1.1197,1.1201,1.1204,0,0,0,0,0,0,0,0,0,0,0,0,0,1.0717,1.0721,1.0915,1.0917,1.0919,1.1036,1.1037,1.1039,1.1077,1.1077,1.1076,1.1075,1.1196,1.12,1.1205,0,0,0,0,0,0,0,0,0,0,0,0,0,1.0817,1.0722,1.0915,1.0952,1.0956,1.1035,1.1037,1.1039,1.1077,1.1077,1.1076,1.1075,1.1194,1.12,1.1205,1.1256,0,0,1.1222,1.1225,0,0,0,0,0,0,0,0,1.0811,1.0824,1.0945,1.095,1.0955,1.1041,1.1012,1.1112,1.1078,1.1031,1.1076,1.1075,1.1146,1.1155,1.1179,1.1262,1.1267,1.1223,1.1226,1.1229,1.123,0,0,0,0,0,0,0,1.0804,1.0819,1.0963,1.0947,1.0953,1.0962,1.0975,1.1031,1.1091,1.1035,1.1039,1.1052,1.1148,1.1174,1.1182,1.1269,1.1223,1.1228,1.1231,1.1233,1.1398,1.1399,0,0,0,0,0,0,1.0792,1.0813,1.0959,1.0967,1.088,1.0966,1.0981,1.1014,1.1091,1.1102,1.1053,1.1054,1.1165,1.1176,1.1187,1.1251,1.1229,1.1234,1.1237,1.1397,1.1399,1.14,0,0,0,0,0,0,1.0787,1.0804,1.0954,1.0891,1.0911,1.097,1.1007,1.1017,1.1043,1.1104,1.1115,1.1068,1.1165,1.1179,1.1239,1.1256,1.1236,1.1241,1.1396,1.1398,1.1399,1.138,0,0,0,0,0,0,1.0781,1.0802,1.0823,1.0891,1.0914,1.1004,1.1008,1.102,1.1052,1.1055,1.1122,1.1132,1.1165,1.123,1.1244,1.1263,1.1246,1.1395,1.1397,1.1399,1.1379,1.1381,1.1382,0,0,0,0,0,1.0774,1.0812,1.0823,1.0841,1.0941,1.1005,1.1018,1.1056,1.1054,1.1074,1.1114,1.113,1.1252,1.1236,1.1252,1.1273,1.1394,1.1396,1.1399,1.1379,1.1381,1.1382,0,0,0,0,0,0,1.0743,1.0822,1.0835,1.0897,1.0944,1.1012,1.1039,1.1057,1.1106,1.1106,1.115,1.1165,1.1221,1.1253,1.1234,1.1326,1.1324,1.1329,1.1303,1.1305,1.1306,1.1297,1.1251,0,0,0,0,0,1.0744,1.079,1.0856,1.0904,1.0927,1.0979,1.1009,1.1034,1.1084,1.1105,1.1149,1.1197,1.1246,1.1277,1.1326,1.1384,1.1399,1.1407,1.1408,1.1409,1.1413,1.1446,1.145,1.1407,1.1407,1.1407,0,0,1.0745,1.0794,1.082,1.0899,1.0939,1.0986,1.0996,1.1045,1.108,1.1112,1.1171,1.1205,1.1261,1.1321,1.1349,1.1349,1.1428,1.1412,1.1412,1.1416,1.1449,1.1453,1.1456,1.1409,1.1409,1.1408,0,0,1.0771,1.0813,1.0857,1.0897,1.0957,1.0992,1.1002,1.1068,1.1091,1.1152,1.1177,1.1219,1.1303,1.1342,1.1373,1.1414,1.1431,1.1429,1.1435,1.1467,1.147,1.1474,1.1488,1.1493,1.1433,1.1433,1.1433,0,1.0764,1.0837,1.0877,1.0926,1.0959,1.0991,1.1036,1.1073,1.1146,1.1168,1.1168,1.1274,1.1314,1.1383,1.1393,1.1417,1.143,1.1421,1.1467,1.147,1.1474,1.1488,1.1493,1.1432,1.1432,1.1432,1.1433,0,1.0826,1.0875,1.0904,1.0974,1.1012,1.1058,1.1105,1.1137,1.1159,1.1193,1.1254,1.1303,1.1363,1.1381,1.1403,1.1453,1.1451,1.1458,1.1456,1.1477,1.1491,1.1497,1.1431,1.1432,1.1432,1.1432,0,0,1.0835,1.0928,1.0938,1.097,1.1039,1.1078,1.1126,1.1185,1.1211,1.1261,1.1301,1.1372,1.1379,1.1414,1.144,1.1468,1.1497,1.1472,1.1474,1.1474,1.1555,1.1549,1.1555,1.1509,1.151,1.1511,1.155,0,1.087,1.0957,1.0995,1.1065,1.1111,1.1142,1.1183,1.123,1.1263,1.1307,1.1343,1.1392,1.1398,1.1419,1.1448,1.1487,1.1514,1.1485,1.1546,1.1548,1.1531,1.1562,1.1556,1.1591,1.1556,1.1557,1.1558,0,1.0922,1.0972,1.1047,1.111,1.1131,1.1168,1.1225,1.1266,1.1319,1.1341,1.1381,1.1406,1.1456,1.1452,1.1521,1.1501,1.1528,1.1551,1.1554,1.156,1.1554,1.1569,1.1603,1.1608,1.1567,1.1566,1.1565,0,1.0921,1.1007,1.1063,1.109,1.1166,1.1191,1.1223,1.1276,1.1309,1.1358,1.138,1.1434,1.1464,1.1505,1.1544,1.1537,1.161,1.1609,1.163,1.1629,1.1643,1.1642,1.1681,1.1661,1.1661,1.1661,1.1661,0,1.0956,1.1,1.1064,1.1098,1.1148,1.1191,1.1239,1.1274,1.1321,1.1362,1.1392,1.1429,1.1479,1.1523,1.1554,1.1607,1.162,1.1639,1.1646,1.1636,1.1633,1.1654,1.1652,1.1663,1.1662,1.1662,1.1662,0,1.0963,1.1008,1.107,1.1138,1.1155,1.1189,1.1246,1.128,1.1315,1.1366,1.1381,1.1435,1.1488,1.1531,1.1601,1.1621,1.1677,1.1686,1.1659,1.1663,1.1681,1.1679,1.1735,1.1744,1.1718,1.1718,1.1718,0,1.0982,1.1017,1.1088,1.1118,1.1151,1.1198,1.1232,1.1276,1.131,1.1373,1.14,1.1455,1.1502,1.1585,1.163,1.1683,1.1693,1.1709,1.1701,1.169,1.1693,1.169,1.1694,1.171,1.171,1.171,1.171,0,1.1011,1.1031,1.108,1.1136,1.1176,1.1222,1.1268,1.1291,1.1343,1.1379,1.1434,1.1471,1.1542,1.1596,1.1654,1.1687,1.1707,1.1712,1.172,1.1709,1.1692,1.1701,1.1661,1.1711,1.1711,1.1711,1.171,1.171,1.1025,1.1057,1.1112,1.1165,1.1205,1.1248,1.1283,1.1322,1.1369,1.1431,1.1454,1.151,1.1562,1.1642,1.1676,1.172,1.1722,1.1733,1.1736,1.1738,1.1736,1.1685,1.1731,1.1731,1.1731,1.1731,1.1731,0,1.1055,1.1092,1.114,1.1205,1.1246,1.1262,1.1315,1.1348,1.1397,1.1445,1.149,1.1553,1.1606,1.1656,1.1711,1.1737,1.1747,1.175,1.1748,1.1755,1.1731,1.1719,1.174,1.174,1.174,1.174,1.174,1.174,1.1075,1.1131,1.1158,1.1233,1.127,1.1326,1.1355,1.1394,1.1433,1.1502,1.1546,1.1578,1.1627,1.1686,1.1735,1.1748,1.1767,1.1767,1.1782,1.1759,1.1757,1.1756,1.1744,1.1771,1.1771,1.1802,1.1803,1.1803]},{"header":{"parameterUnit":"m.s-1","parameterCategory":1,"la1":30.2991,"la2":30.254,"lo1":-89.0895,"lo2":-89.0444,"dy":0.0017,"dx":0.0017,"nx":28,"ny":28,"refTime":"2025-08-12T21:00:00:Z","depth":0,"parameterNumber":3,"parameterNumberName":"V-component_of_WINDS"},"data":[0,0,0,0,0,0,0,0,0,0,0,0,0,0,0,0,0,0,0,0,0,0,0,0,0,0,0,0,0,0,0,0,0,0,0,0,0,0,0,0,0,0,0,0,0,0,0,0,0,0,0,0,0,0,0,0,0,0,3.9853,3.9853,0,3.9868,3.9868,3.9868,3.9843,3.9842,3.9841,3.984,3.9854,3.9855,3.9856,0,0,0,0,0,0,0,0,0,0,0,0,0,3.9799,3.98,3.9853,3.9853,3.9853,3.9868,3.9868,3.9868,3.9843,3.9842,3.9841,3.984,3.9854,3.9855,3.9856,0,0,0,0,0,0,0,0,0,0,0,0,0,3.9819,3.9801,3.9853,3.9842,3.9842,3.9868,3.9868,3.9868,3.9843,3.9842,3.9841,3.984,3.9853,3.9855,3.9857,3.9893,0,0,3.9862,3.9863,0,0,0,0,0,0,0,0,3.9818,3.9821,3.9844,3.9843,3.9842,3.9852,3.9854,3.9877,3.9844,3.9843,3.984,3.9839,3.9854,3.9856,3.9861,3.9894,3.9894,3.9862,3.9863,3.9864,3.9864,0,0,0,0,0,0,0,3.9817,3.982,3.9859,3.9844,3.9843,3.9836,3.9838,3.9858,3.9855,3.9843,3.9841,3.9843,3.9854,3.986,3.9862,3.9894,3.9862,3.9863,3.9865,3.9865,3.9957,3.9958,0,0,0,0,0,0,3.9817,3.982,3.9858,3.9859,3.9827,3.9838,3.984,3.985,3.9855,3.9855,3.9844,3.9842,3.9858,3.986,3.9862,3.9905,3.9864,3.9865,3.9866,3.9955,3.9957,3.9958,0,0,0,0,0,0,3.9816,3.9821,3.9858,3.9839,3.9843,3.984,3.9853,3.9851,3.9858,3.9856,3.9855,3.9851,3.9857,3.986,3.9885,3.9905,3.9866,3.9868,3.9954,3.9956,3.9958,3.9991,0,0,0,0,0,0,3.9815,3.9821,3.9835,3.9839,3.9844,3.9882,3.9854,3.9853,3.9861,3.9858,3.9863,3.9862,3.9856,3.9883,3.9887,3.9906,3.9869,3.9952,3.9955,3.9957,3.9988,3.9993,3.9998,0,0,0,0,0,3.9813,3.9843,3.9836,3.9841,3.9862,3.9883,3.9885,3.9878,3.9863,3.9877,3.9876,3.9862,3.9902,3.9886,3.989,3.991,3.9951,3.9954,3.9957,3.9985,3.9992,3.9998,0,0,0,0,0,0,3.9841,3.9844,3.9836,3.9869,3.9876,3.9879,3.9896,3.9886,3.9897,3.9894,3.9883,3.9885,3.9913,3.9914,3.9896,3.9946,3.9924,3.9928,3.9944,3.995,3.9956,3.9954,3.9871,0,0,0,0,0,3.9851,3.9868,3.9869,3.9898,3.9903,3.9899,3.9908,3.9901,3.9908,3.9911,3.9912,3.9918,3.9932,3.9941,3.9954,3.9988,3.9988,4.0004,4.0009,4.0014,4.0017,4.0034,4.0041,3.9969,3.9969,3.9969,0,0,3.9872,3.9875,3.9887,3.9904,3.9909,3.9926,3.9902,3.9921,3.9933,3.9913,3.9938,3.9939,3.9945,3.9975,3.9988,3.9977,4.0037,4.0017,4.0021,4.0022,4.0038,4.0045,4.0051,3.9971,3.997,3.997,0,0,3.9918,3.9923,3.9948,3.9953,3.9961,3.9958,3.9964,3.9969,3.9969,3.9993,3.9978,3.9993,4.0017,4.0022,4.0028,4.0076,4.0064,4.0081,4.0108,4.0125,4.0131,4.0136,4.0153,4.0159,4.0084,4.0084,4.0084,0,3.9943,3.9969,3.9961,3.9982,3.999,3.9973,3.9997,4.0002,4.0014,4.0019,4.0006,4.0037,4.004,4.007,4.0082,4.0087,4.0093,4.008,4.0131,4.0136,4.0141,4.0156,4.0163,4.0086,4.0086,4.0086,4.0086,0,3.9999,4.0017,4.0036,4.0048,4.0058,4.008,4.0075,4.0085,4.0078,4.0076,4.0101,4.0105,4.0117,4.0124,4.0117,4.0154,4.0147,4.0133,4.011,4.015,4.0164,4.017,4.0089,4.0088,4.0088,4.0087,0,0,4.0063,4.0071,4.0078,4.0083,4.009,4.0104,4.0125,4.0138,4.0147,4.0155,4.0172,4.0193,4.018,4.0187,4.018,4.0195,4.0232,4.0179,4.0179,4.0189,4.0272,4.0282,4.029,4.0224,4.0226,4.0227,4.0272,0,4.011,4.0147,4.014,4.0176,4.0192,4.0176,4.0195,4.0201,4.0199,4.0213,4.0211,4.0226,4.0208,4.0212,4.0226,4.0225,4.0249,4.0222,4.0239,4.024,4.0238,4.0297,4.0308,4.0351,4.0277,4.0278,4.0279,0,4.0168,4.0179,4.0217,4.0221,4.0228,4.0244,4.0256,4.0269,4.0275,4.0273,4.028,4.0271,4.0291,4.0268,4.0295,4.0277,4.0284,4.0284,4.0286,4.0287,4.0262,4.0299,4.0364,4.037,4.0288,4.0287,4.0287,0,4.0211,4.0235,4.0261,4.0266,4.0271,4.0283,4.0286,4.0291,4.0299,4.0309,4.0314,4.0326,4.0332,4.0341,4.0334,4.0319,4.0362,4.0339,4.0361,4.0361,4.037,4.037,4.0436,4.0375,4.0375,4.0375,4.0375,0,4.0263,4.0287,4.028,4.0296,4.0321,4.0313,4.0338,4.0339,4.0343,4.0358,4.0345,4.0359,4.035,4.0363,4.0358,4.0381,4.0384,4.0383,4.0381,4.0384,4.0384,4.0388,4.0384,4.0377,4.0377,4.0376,4.0376,0,4.0315,4.0312,4.0338,4.0342,4.0343,4.0362,4.0364,4.0378,4.0376,4.0395,4.0399,4.0396,4.041,4.0405,4.042,4.0417,4.0446,4.0441,4.0444,4.0443,4.0464,4.0462,4.0535,4.0544,4.0478,4.0479,4.0479,0,4.0348,4.0366,4.0371,4.0381,4.0385,4.04,4.0408,4.0401,4.041,4.0418,4.0431,4.0445,4.0455,4.0479,4.0478,4.049,4.0484,4.0509,4.0486,4.0488,4.0484,4.0483,4.0484,4.0513,4.0514,4.0515,4.0515,0,4.0408,4.0405,4.0418,4.043,4.0441,4.045,4.0458,4.0466,4.0459,4.047,4.0485,4.0493,4.0509,4.0523,4.0533,4.0535,4.0524,4.0523,4.0528,4.0531,4.0532,4.0531,4.0457,4.0521,4.052,4.052,4.052,4.0519,4.0451,4.0466,4.0472,4.0486,4.0492,4.0499,4.0513,4.0513,4.0525,4.0538,4.0533,4.055,4.0555,4.0568,4.0572,4.0585,4.0575,4.0583,4.0585,4.0587,4.0589,4.053,4.0586,4.0586,4.0586,4.0586,4.0586,0,4.0509,4.0512,4.0526,4.0537,4.0549,4.0538,4.0546,4.0556,4.0572,4.0578,4.0588,4.0606,4.0619,4.0618,4.063,4.0641,4.0636,4.0644,4.0643,4.0643,4.0598,4.0592,4.0648,4.0648,4.0648,4.0648,4.0648,4.0648,4.054,4.0565,4.0563,4.0589,4.0592,4.061,4.0615,4.0622,4.0626,4.0646,4.0657,4.0657,4.066,4.0672,4.0684,4.0683,4.0688,4.0698,4.0696,4.0653,4.0647,4.0641,4.0635,4.0699,4.0699,4.074,4.074,4.0741]}]]